Wind_Speed
77 78 81 85 89 91 90 94 94 90 90 92 97 101 98 74 63 75 72 69 69 59 55 56 62 71 71 70 70 68 67 65 62 60 56 51 47 45 44 42 41 40 39 41 40 39 40 42 41 39 42 37 32 32 34 33 30 28 28 27 26 30 32 29 24 18 15 15 15 14 13 12 13 12 11 10 10 9 9 9 9 9 9 9 10 11 12 14
77 79 81 84 88 92 92 94 94 88 87 90 95 97 97 82 62 69 73 69 71 65 57 54 56 67 71 70 70 69 68 67 65 62 56 52 50 48 45 43 42 42 41 40 38 37 37 41 42 41 43 40 33 32 33 33 32 30 29 27 29 33 31 26 22 20 19 17 14 14 14 14 13 12 11 10 10 10 9 9 9 9 10 9 9 10 10 12
77 79 81 84 87 92 93 94 94 88 86 88 92 92 95 90 67 62 70 68 71 68 58 54 53 59 70 71 70 70 69 68 67 63 58 55 53 49 47 46 44 42 42 40 37 37 37 40 42 42 44 42 35 35 34 33 33 32 30 28 31 32 28 24 22 22 20 17 16 14 13 13 13 12 12 11 11 9 9 9 9 10 10 10 9 9 10 11
78 80 81 84 86 91 93 94 95 89 86 87 88 90 92 93 76 61 63 67 69 67 57 52 53 54 64 70 70 72 71 71 69 63 59 57 54 51 49 48 46 44 42 41 39 37 38 39 40 42 45 43 37 36 36 34 33 32 30 29 30 28 26 24 22 23 21 19 18 13 11 14 14 13 12 11 10 9 10 10 10 11 11 11 10 9 9 9
78 80 81 84 86 90 93 94 95 90 87 87 86 89 91 93 85 66 58 65 70 67 60 53 53 53 59 67 71 74 73 73 69 63 61 59 55 52 51 49 47 45 43 42 40 37 38 39 38 40 43 43 39 37 37 36 34 31 30 30 29 25 25 26 24 24 23 22 20 15 14 17 16 14 13 12 11 11 11 12 12 12 12 11 10 9 7 7
79 81 82 84 85 88 93 94 95 92 88 89 87 87 90 92 95 82 62 66 73 68 65 59 54 54 59 64 68 74 77 73 68 65 63 60 57 55 52 51 49 47 45 43 42 38 38 39 40 39 39 41 40 37 37 38 36 31 29 29 29 24 23 28 27 26 26 24 21 19 19 17 15 14 13 13 12 13 13 13 14 13 12 11 10 9 7 6
80 81 83 84 86 88 92 93 94 93 90 90 89 87 89 92 100 95 72 68 72 65 66 63 54 52 57 63 67 73 77 74 69 66 65 61 58 57 55 53 51 49 47 45 44 40 37 38 38 37 38 42 40 33 33 37 37 34 31 29 28 26 24 28 29 28 27 25 23 22 20 17 16 15 14 14 13 14 14 13 14 13 13 13 11 10 10 8
80 81 83 85 86 88 91 93 93 95 92 91 91 87 88 93 99 97 77 67 66 62 66 63 55 52 56 64 69 75 78 75 71 67 66 63 59 58 57 55 53 51 48 46 45 41 37 36 38 38 39 41 39 34 31 34 37 35 34 31 28 27 26 28 30 30 29 27 25 23 21 19 17 16 16 14 13 14 14 13 15 14 13 13 12 11 11 11
79 81 83 85 87 89 90 92 93 95 95 93 93 88 87 92 96 95 80 65 61 62 67 64 56 55 57 62 69 76 78 74 73 70 67 65 62 60 59 58 55 53 50 47 46 43 39 37 38 40 40 38 37 37 35 34 35 35 36 34 30 29 28 28 28 29 29 28 26 24 23 20 18 17 16 14 14 14 15 14 15 14 13 13 12 12 12 12
79 80 83 86 87 89 90 91 93 95 96 96 95 90 88 91 92 92 82 67 63 62 65 64 58 58 61 64 68 73 76 75 74 71 69 66 64 63 60 59 57 54 51 49 48 45 41 38 38 40 40 39 39 39 39 37 34 35 38 36 32 30 29 29 29 27 28 28 27 27 25 22 20 18 15 16 16 16 16 15 15 15 14 14 13 12 13 13
77 79 82 85 87 90 91 92 93 94 97 98 97 92 89 90 89 92 86 72 65 59 55 54 53 59 64 64 68 71 73 77 76 71 69 68 65 64 62 60 59 56 53 51 49 45 42 41 39 38 39 38 38 39 39 40 38 36 37 36 34 32 31 31 30 28 27 28 29 29 27 24 20 17 18 21 19 17 17 15 15 15 14 14 14 13 13 13
75 78 81 84 87 90 91 93 94 95 98 99 98 94 91 91 89 92 91 80 69 63 60 53 51 58 63 64 67 69 72 76 77 73 70 69 66 65 62 60 58 56 54 51 50 46 43 43 42 40 38 35 35 35 36 38 40 40 38 35 35 36 35 32 30 29 27 27 29 30 29 25 20 19 23 23 19 17 17 15 15 15 15 15 15 15 15 14
73 76 79 83 86 89 92 94 95 96 99 100 99 95 93 93 91 93 97 92 82 77 75 62 55 61 63 64 67 67 72 77 76 74 72 70 69 66 64 62 59 57 55 53 51 48 45 44 42 42 40 37 36 35 33 34 36 39 39 36 36 37 35 32 31 30 29 28 29 30 29 25 22 24 26 23 19 17 17 16 16 15 15 15 16 16 16 15
70 73 77 81 85 88 92 94 96 97 100 102 100 98 96 94 93 94 102 105 96 90 87 70 56 63 66 63 64 66 73 78 77 74 73 72 70 68 66 64 62 59 58 56 54 51 47 45 43 42 42 41 39 37 34 33 33 35 38 38 36 35 32 32 33 31 30 30 30 31 28 24 26 27 26 24 20 18 17 18 17 16 15 15 15 16 16 16
66 70 73 78 82 87 91 94 98 99 101 104 102 100 98 96 96 97 102 110 103 92 90 82 64 60 66 67 64 66 75 79 79 75 73 72 70 69 67 65 63 61 60 59 56 53 49 47 45 45 44 43 42 39 36 34 33 35 36 35 33 31 31 31 32 32 32 32 32 32 28 26 28 28 27 26 23 20 19 19 19 17 16 15 15 15 16 16
61 65 69 75 80 84 90 94 98 100 103 105 104 102 100 99 100 100 101 106 105 91 83 87 80 64 64 70 66 66 75 79 77 76 75 73 70 69 67 65 63 61 62 61 58 55 52 50 49 49 47 46 45 42 39 36 36 37 33 30 29 28 28 28 30 31 31 33 33 32 29 28 29 28 28 28 25 23 21 20 20 19 18 17 17 16 16 15
56 59 64 70 76 82 88 93 97 101 104 106 105 103 102 102 102 103 102 100 100 96 87 82 78 71 67 70 67 66 75 79 75 74 75 73 71 70 68 65 63 62 62 63 62 59 57 55 53 51 48 47 49 46 44 42 40 37 30 27 27 26 25 24 25 28 30 32 33 33 31 29 30 30 30 29 28 27 24 22 21 21 20 18 18 17 16 16
54 56 60 65 70 77 84 89 95 99 105 107 104 101 103 103 102 103 99 94 89 89 90 78 70 76 76 71 66 64 72 77 74 73 73 74 72 70 69 66 64 63 64 66 65 63 62 58 54 52 47 45 49 50 47 44 38 33 27 25 26 25 24 22 22 25 29 31 33 34 31 30 32 32 31 30 29 29 27 25 23 22 21 18 18 17 17 16
53 55 58 60 64 71 77 83 90 96 102 103 96 95 101 100 99 98 92 91 87 78 85 82 73 76 72 65 63 61 68 75 73 73 74 74 74 71 70 68 66 65 66 68 67 65 63 59 55 55 50 46 49 50 47 43 36 31 28 29 30 27 25 22 21 23 26 29 31 32 31 32 34 32 31 32 31 30 30 27 24 22 21 19 17 17 17 16
53 54 56 58 61 66 71 76 82 92 98 97 88 87 96 96 93 92 87 90 89 78 79 80 75 77 68 61 63 61 68 75 73 73 75 74 74 73 72 71 70 69 68 67 66 64 63 61 57 55 51 46 47 48 45 42 37 34 34 35 33 30 27 23 21 21 22 25 28 31 33 34 35 32 31 33 33 31 30 28 24 22 21 19 18 18 17 17
53 54 56 58 60 63 68 72 76 82 90 92 84 84 93 97 96 94 89 88 87 82 81 75 69 78 78 69 64 60 66 75 75 73 74 75 74 74 75 75 74 73 70 67 66 65 64 62 59 55 51 46 44 45 45 42 40 39 39 38 35 32 28 23 21 20 20 22 26 31 33 34 35 34 32 33 33 30 29 28 25 23 23 21 20 19 18 17
53 54 55 58 60 63 67 71 71 72 79 83 79 80 85 91 98 96 90 85 83 85 90 83 71 71 79 81 75 65 66 74 77 76 76 76 76 76 76 76 76 74 72 71 69 68 67 65 61 58 54 49 45 45 45 43 42 43 42 40 38 33 29 24 21 21 20 22 25 28 30 31 35 36 34 33 32 30 30 29 27 24 24 22 20 20 19 18
54 55 55 57 60 64 67 68 68 68 73 75 73 74 76 82 88 87 86 82 74 78 88 93 88 73 67 77 81 71 65 70 77 78 79 79 77 77 75 74 75 73 72 71 71 70 69 68 64 61 58 55 52 48 45 44 44 45 45 43 39 33 28 25 24 24 23 23 24 25 25 26 32 35 35 34 33 31 30 29 27 25 23 21 20 20 19 16
52 53 56 58 58 62 65 66 68 68 68 69 69 71 72 76 78 78 83 83 74 74 79 85 94 87 69 65 74 71 62 65 73 75 79 81 79 78 76 74 73 73 72 69 68 67 67 66 65 63 60 57 55 52 47 46 46 45 46 43 38 33 30 27 27 27 25 24 23 23 22 23 29 33 33 34 34 31 30 29 28 25 22 21 21 21 20 18
50 52 56 58 56 57 61 63 66 66 64 65 68 71 73 75 76 77 80 82 81 79 78 81 90 96 87 72 70 70 63 65 72 72 73 78 80 79 77 75 73 73 72 69 67 66 66 65 63 62 59 54 54 54 49 47 47 45 45 42 37 35 32 31 31 30 28 26 23 23 21 21 26 29 30 32 33 30 30 30 27 24 22 22 22 22 23 23
51 53 54 55 54 56 58 61 64 65 63 64 69 75 77 77 78 78 77 81 87 83 81 85 86 92 97 87 78 74 68 67 72 73 71 73 76 75 75 75 74 73 72 70 68 66 67 66 64 63 61 55 53 53 52 50 49 47 44 40 38 37 35 35 34 32 30 27 24 24 22 21 23 25 26 28 28 28 28 27 24 23 23 23 24 24 24 23
52 55 55 54 55 57 59 61 64 65 62 63 73 81 81 79 76 77 78 85 92 86 81 83 80 82 89 88 86 82 75 71 72 76 74 73 73 72 72 72 72 73 72 71 69 69 69 68 65 64 64 61 56 52 52 52 51 48 42 37 37 37 39 39 36 34 32 29 27 27 24 22 21 21 22 23 23 22 21 21 21 22 23 24 25 26 25 23
53 57 58 57 58 58 58 61 63 61 60 64 79 88 85 78 73 76 82 90 94 85 78 78 73 72 74 75 79 82 77 69 70 79 78 75 74 72 71 71 70 71 71 71 70 70 70 69 68 66 66 67 62 55 51 49 48 45 40 36 35 37 40 41 38 36 34 32 31 29 27 24 19 19 21 21 18 15 15 17 19 20 21 22 23 23 23 21
52 55 57 58 60 60 57 60 61 58 61 70 85 94 88 78 72 76 84 91 95 86 77 75 71 68 68 68 71 76 75 68 69 77 80 78 76 72 71 70 70 70 68 67 68 68 68 67 65 64 64 66 63 58 52 47 45 43 40 38 36 38 41 43 40 37 37 36 34 31 30 27 20 19 20 19 15 13 15 16 18 19 20 19 19 19 19 18
50 51 54 54 57 61 61 61 60 62 69 75 87 95 91 82 74 74 79 84 90 93 88 81 77 73 72 72 71 73 75 71 69 74 78 77 74 73 71 68 69 70 69 67 66 66 66 64 62 61 61 61 56 53 51 48 46 45 43 42 41 42 43 44 41 39 40 40 37 34 34 31 23 21 19 17 15 15 15 15 16 18 18 18 17 16 16 16
52 53 53 51 52 56 60 62 62 68 75 78 87 95 93 88 80 74 74 74 78 92 97 90 85 82 79 79 77 76 77 73 70 73 75 74 72 72 72 70 69 69 70 69 68 68 67 66 65 61 60 58 53 51 52 51 51 50 48 46 45 45 45 46 44 43 44 43 40 37 36 34 25 20 18 18 17 16 17 17 17 16 15 15 14 14 14 13
55 56 54 52 51 50 54 59 63 71 76 77 84 93 95 92 85 77 71 66 65 81 94 92 90 87 84 83 82 81 80 77 74 74 74 75 76 76 74 75 75 73 75 73 70 70 68 68 68 64 61 59 56 55 56 57 57 56 53 49 48 48 48 50 49 47 46 45 42 37 37 36 25 20 20 21 20 20 20 19 19 17 15 14 13 14 13 13
57 56 55 54 52 49 50 57 65 73 77 76 75 83 92 93 87 78 71 62 57 69 86 90 90 88 86 86 84 82 80 77 75 75 74 74 77 78 76 77 76 75 79 77 74 74 72 70 70 67 64 61 59 59 60 62 62 61 58 54 52 51 51 52 51 49 47 46 43 38 37 36 29 23 23 23 22 23 21 21 22 21 19 17 15 16 16 15
55 55 55 54 51 47 47 57 70 77 77 74 69 73 84 92 91 79 68 61 54 61 78 86 87 86 87 87 86 83 79 77 75 74 76 77 78 78 78 77 76 74 74 75 75 76 75 75 75 72 69 65 61 60 60 60 60 60 57 53 52 51 51 50 50 48 46 45 44 40 39 38 33 28 25 25 25 24 23 24 25 24 22 20 19 18 19 18
53 53 52 50 50 48 46 56 72 77 74 71 68 69 77 90 95 81 65 59 53 58 73 83 85 86 86 86 85 83 79 77 75 74 76 79 79 79 79 79 79 79 77 74 74 75 73 73 72 71 69 65 61 60 60 60 60 59 56 53 53 53 51 50 50 49 48 47 47 45 43 40 35 30 28 28 28 26 25 25 25 25 24 23 22 21 21 20
48 50 50 48 49 50 48 55 66 67 63 62 62 66 75 89 98 83 63 56 52 55 68 80 85 87 88 86 83 81 77 74 74 75 74 74 75 77 78 77 78 80 81 79 77 76 74 71 70 68 65 62 59 58 57 58 59 59 58 55 52 51 50 50 50 51 51 51 50 49 45 41 38 35 31 30 29 27 26 25 26 26 26 25 25 24 23 22
45 45 47 47 48 49 49 54 59 56 52 53 55 62 73 88 98 85 64 54 50 52 63 76 85 90 90 88 82 79 76 73 72 74 75 73 73 75 75 75 75 75 77 78 77 76 74 72 72 70 67 62 60 59 57 55 56 57 57 54 50 49 50 49 50 51 52 53 53 51 48 43 40 37 32 29 29 28 27 26 26 27 26 26 26 25 25 24
44 43 45 46 46 47 48 53 55 49 46 49 51 58 68 83 97 91 69 53 49 51 58 68 81 89 91 89 84 80 78 76 74 75 76 75 74 74 72 71 71 71 73 74 74 74 73 71 71 71 69 65 63 63 62 60 60 60 58 55 52 52 53 53 54 55 55 56 55 54 51 46 43 38 31 28 27 28 28 27 27 27 28 28 28 27 27 26
45 45 44 43 43 43 44 48 47 41 43 48 51 57 66 77 93 95 76 53 48 53 57 60 71 83 88 87 85 83 82 80 78 76 77 77 76 73 70 68 68 68 70 71 72 73 73 72 72 70 69 67 65 65 65 65 64 64 64 61 58 57 57 56 56 56 56 55 55 55 54 49 44 38 32 30 28 28 29 28 28 29 29 30 30 29 29 28
45 45 44 42 42 42 42 42 41 39 40 44 48 56 64 73 85 94 84 59 48 54 57 55 62 73 82 85 83 83 83 82 80 77 77 76 75 72 71 69 68 67 67 69 70 72 72 73 73 72 70 69 69 68 67 65 64 64 65 65 63 62 61 60 59 58 57 57 56 56 56 52 46 39 33 31 29 29 29 29 29 30 30 31 32 32 31 30
44 44 43 42 42 42 43 43 41 39 38 39 45 52 61 70 79 89 91 71 51 51 54 55 59 66 74 80 80 81 81 81 81 79 77 77 75 74 72 70 70 69 69 69 70 71 71 72 72 73 73 70 68 67 65 64 64 63 62 62 61 59 59 59 59 58 57 56 55 55 56 54 49 42 35 31 30 30 30 30 31 31 32 33 33 33 32 30
44 44 43 43 42 42 42 42 40 38 36 37 43 49 56 68 73 81 92 82 58 49 51 54 58 64 69 74 76 79 79 79 80 80 77 75 74 72 70 69 70 71 71 71 71 70 70 71 72 73 73 70 68 67 65 64 64 63 62 61 59 58 58 57 57 56 54 53 54 56 57 56 51 46 41 35 33 33 32 32 32 32 32 32 32 32 31 30
44 44 43 42 43 42 41 41 40 40 39 37 40 45 53 64 69 74 86 90 72 55 51 52 54 59 65 70 73 77 79 79 79 78 76 72 70 68 69 70 71 73 73 72 72 72 72 72 73 72 72 70 69 67 65 65 66 66 64 63 62 61 59 58 56 55 54 54 56 57 60 58 53 50 47 43 39 36 35 34 32 31 31 30 29 29 29 30
44 44 43 43 43 42 41 42 42 42 41 38 38 42 49 58 65 69 79 89 85 67 55 51 51 54 60 66 71 74 78 80 78 76 76 74 71 70 69 69 71 73 74 74 75 73 72 72 73 73 73 73 72 70 69 69 69 67 65 63 62 61 59 59 58 57 59 60 60 60 62 61 57 54 52 49 46 41 37 35 32 30 30 29 28 28 29 31
44 44 44 43 42 42 41 41 41 40 39 38 37 40 45 51 59 66 73 83 88 79 64 53 50 52 55 60 66 72 77 80 78 77 77 76 75 74 71 69 69 71 72 74 75 71 68 70 71 72 75 76 76 74 75 75 73 71 68 66 64 63 63 63 62 63 65 65 64 64 63 62 60 58 55 52 50 45 37 33 31 30 29 29 29 30 32 34
43 43 43 43 41 41 40 39 39 38 36 37 37 40 44 48 53 62 69 77 84 84 74 60 51 52 54 54 59 68 76 79 77 78 79 80 80 79 75 71 69 70 71 73 75 73 69 69 69 69 70 70 70 70 71 73 73 72 71 69 68 68 67 66 66 68 68 66 66 64 61 60 59 57 55 52 49 45 38 34 32 31 32 34 34 35 36 38
40 40 40 41 41 41 40 39 38 37 35 35 36 38 41 44 47 55 64 72 79 82 80 68 54 51 54 52 51 59 70 77 77 76 76 78 79 79 78 76 72 70 70 71 74 76 75 73 71 70 68 67 67 67 66 66 66 66 67 67 67 67 67 68 69 68 66 65 66 61 56 57 56 52 51 48 44 43 41 39 37 36 40 43 41 39 39 41
40 38 38 38 39 38 38 37 36 35 34 34 34 34 35 37 41 48 57 65 73 77 79 73 61 52 51 52 50 50 57 66 72 74 74 73 75 76 78 79 77 74 72 70 71 73 76 77 75 72 70 68 68 67 65 64 63 63 63 63 63 63 64 65 65 63 62 64 63 55 51 55 55 50 47 46 46 46 46 46 45 45 47 47 44 41 41 42
39 39 37 36 34 34 35 35 34 34 33 33 32 31 30 31 34 40 48 57 65 70 74 76 70 58 51 51 51 48 47 50 57 66 72 70 70 73 76 77 77 75 75 73 71 71 73 73 73 71 68 66 66 65 64 64 64 64 64 63 62 62 62 62 61 59 59 61 59 55 54 58 58 54 51 51 52 52 51 51 51 51 50 46 43 43 43 43
38 38 38 36 34 32 32 33 34 34 33 31 30 29 29 30 31 34 41 48 55 61 68 73 75 69 59 52 50 49 45 41 42 53 63 65 64 67 73 75 74 72 73 74 73 72 70 69 70 69 67 65 63 63 63 64 64 64 64 63 64 64 64 64 63 62 63 64 61 60 63 64 62 59 57 56 55 55 54 54 53 52 50 47 45 45 45 45
37 36 36 36 36 34 32 32 31 31 31 29 28 27 27 27 28 30 35 41 46 52 60 68 73 75 69 58 52 49 46 41 39 46 57 60 59 61 67 72 76 75 72 71 73 72 69 69 69 69 70 68 64 63 65 64 65 66 67 66 66 66 65 64 64 63 65 65 62 63 66 65 61 59 56 56 56 57 56 54 52 52 51 50 49 48 47 47
37 36 36 36 36 36 34 33 31 30 28 27 27 26 25 24 24 26 30 35 40 45 53 61 69 74 73 67 61 55 51 47 43 46 56 59 57 58 61 65 71 75 75 72 71 72 70 68 68 70 71 69 66 67 68 67 71 73 69 64 63 63 63 64 64 64 64 65 64 65 64 60 58 56 54 55 58 58 56 54 53 53 53 54 54 52 51 50
Wind_Direction
219 218 217 216 218 220 221 222 223 223 222 222 223 222 220 213 197 197 199 199 200 200 205 211 218 221 219 219 219 218 219 218 217 215 215 216 215 213 212 212 211 209 210 214 215 214 210 209 210 210 214 212 206 212 218 214 209 206 211 215 217 224 227 227 225 213 212 218 213 214 216 218 223 224 223 223 226 226 221 212 199 192 186 192 208 215 217 211
218 217 216 216 217 219 221 223 224 223 222 222 222 224 222 214 201 197 198 197 198 199 199 202 214 221 220 220 219 219 218 218 217 214 214 216 215 213 212 212 211 209 210 213 214 213 211 211 213 209 213 217 208 208 218 219 213 209 212 216 221 225 225 226 224 216 220 221 214 213 213 217 221 224 223 222 227 228 229 222 207 201 188 182 198 207 214 218
217 216 216 215 216 218 220 223 224 222 221 221 221 223 222 217 207 197 197 196 197 198 197 198 206 216 220 220 220 220 219 218 217 213 214 215 213 212 212 211 211 210 211 212 213 212 210 212 214 209 210 218 213 208 215 219 217 214 214 218 224 225 222 224 222 218 223 223 217 213 215 221 223 224 225 223 223 225 232 229 214 210 200 187 197 207 207 213
215 215 215 214 214 217 219 222 224 221 220 221 220 221 222 218 209 198 196 195 196 197 195 199 203 210 218 218 220 220 219 219 215 213 215 215 213 212 212 211 211 210 211 212 213 213 210 210 214 210 208 216 217 212 215 219 220 218 216 220 227 225 219 220 221 220 223 224 220 211 215 224 221 221 224 224 221 221 227 229 219 216 212 196 196 211 212 210
214 214 214 214 213 215 218 220 223 222 219 221 220 218 220 219 210 200 198 196 196 195 192 199 202 206 214 216 220 220 220 218 213 214 216 214 213 212 212 212 211 211 210 212 213 213 210 208 211 210 207 212 217 217 218 220 222 220 218 223 228 224 217 220 221 220 221 223 221 210 215 222 218 218 221 222 220 219 224 227 224 219 220 208 198 208 214 215
213 213 213 213 213 214 217 219 222 222 220 220 220 218 218 219 213 207 204 197 195 195 193 196 199 204 210 215 220 220 220 217 212 215 216 214 213 212 212 213 211 211 210 212 213 211 210 208 209 210 206 209 216 219 219 221 222 219 218 223 228 224 217 221 222 221 221 221 221 214 216 222 218 217 219 218 219 222 221 224 229 223 222 218 204 202 203 208
213 212 212 213 213 213 216 217 220 222 220 220 220 218 217 218 217 214 207 197 194 197 197 195 196 201 206 212 218 220 219 217 214 215 216 214 214 212 212 212 211 211 210 211 213 210 210 208 209 210 206 208 216 218 218 221 222 220 219 222 226 223 218 222 221 222 222 221 223 220 220 222 218 217 218 216 218 225 222 222 230 227 225 222 209 200 195 195
213 212 211 212 212 213 214 216 217 220 220 220 220 219 217 217 220 217 208 197 193 197 197 195 196 199 203 209 216 219 218 216 215 215 216 214 213 212 211 211 211 211 210 211 213 209 208 207 207 208 206 209 219 223 222 223 223 222 222 222 224 222 218 220 219 220 222 220 223 224 223 222 219 217 218 216 216 227 227 224 229 227 227 227 217 207 198 194
213 212 211 210 212 212 213 214 216 219 219 220 220 219 217 217 220 219 209 196 189 193 197 196 198 200 203 208 215 219 217 218 216 215 216 214 213 212 211 212 211 211 210 210 212 209 206 206 206 208 210 213 219 224 225 226 224 224 226 224 224 224 221 218 217 220 221 220 221 224 224 222 220 218 218 217 214 225 229 225 228 227 226 229 223 216 208 200
214 212 211 210 211 211 213 214 214 217 219 220 220 218 217 217 219 217 209 196 187 190 195 197 199 200 202 207 215 217 215 218 218 216 216 215 213 212 211 212 211 211 210 210 213 210 206 206 207 210 213 216 218 221 224 226 225 225 227 225 224 226 225 220 218 220 223 221 221 224 225 222 220 219 219 220 215 219 227 225 228 228 225 229 230 224 218 210
215 213 211 210 210 211 212 213 213 216 218 219 219 217 217 217 218 215 208 197 189 187 190 196 202 202 202 206 214 216 213 217 217 216 217 216 214 212 212 212 212 211 210 210 212 212 208 208 211 213 214 214 218 221 223 226 227 227 228 225 225 226 225 223 221 222 222 222 222 224 226 223 220 221 222 222 216 217 225 225 227 230 224 225 230 230 227 220
216 214 212 210 210 210 211 212 213 215 217 219 219 217 216 216 216 214 208 200 196 195 197 207 213 207 206 207 210 214 214 215 215 214 216 216 215 214 213 213 212 212 211 211 212 212 210 211 214 215 216 215 218 221 220 223 226 228 230 227 227 228 226 226 226 226 222 221 223 224 226 224 219 222 226 223 218 218 225 226 225 229 228 224 226 229 231 228
217 215 213 211 210 209 210 211 213 214 217 219 218 217 216 215 215 213 209 205 205 207 207 213 216 208 210 211 208 211 213 214 214 212 213 215 215 215 214 213 211 211 211 211 211 211 210 212 213 214 217 217 219 221 219 220 223 226 229 228 228 229 228 228 229 230 225 222 224 225 225 223 220 224 230 226 220 220 224 230 229 228 231 228 227 228 231 233
217 216 214 212 211 210 209 210 211 213 216 219 218 216 216 215 214 213 211 210 210 214 213 212 211 207 210 213 210 211 211 211 211 211 212 214 215 214 213 212 210 210 211 211 210 210 210 211 213 216 218 218 220 223 220 219 220 222 226 227 228 230 231 230 230 231 228 224 226 226 222 221 224 226 231 229 222 221 220 227 231 228 230 231 231 232 231 234
216 216 215 214 213 211 210 209 210 212 214 218 218 216 216 214 214 213 213 214 214 217 217 214 211 209 210 212 214 214 209 208 208 208 210 213 214 215 214 212 211 209 210 211 210 209 210 211 214 217 219 218 219 222 222 219 218 220 222 224 226 230 233 233 233 233 230 227 226 227 221 219 227 228 231 232 225 223 222 224 229 228 227 229 232 234 233 233
214 216 216 216 215 213 211 210 210 211 213 217 218 216 215 214 214 213 214 217 217 217 219 217 212 212 213 211 214 215 208 205 206 206 208 211 213 215 214 213 212 210 210 210 209 209 209 211 214 215 216 219 220 222 222 220 219 221 221 222 224 227 231 233 236 234 232 229 226 228 222 217 226 229 230 232 229 228 226 225 228 228 225 224 227 231 234 234
211 214 215 216 215 214 213 211 210 210 212 215 217 216 215 214 214 213 213 217 219 216 219 221 218 217 217 212 213 215 208 203 205 205 206 209 210 213 214 214 214 211 211 210 209 208 208 211 213 213 216 219 220 222 224 221 221 221 220 222 225 228 231 233 237 237 234 231 227 226 222 217 224 230 230 231 231 231 230 227 227 229 227 224 225 227 230 233
209 211 213 213 214 214 213 212 210 210 211 214 217 216 214 214 214 214 211 213 217 215 215 221 222 217 212 209 212 214 208 203 204 204 205 208 209 211 212 213 214 212 211 211 211 210 209 212 212 213 218 220 218 221 223 223 222 221 220 224 226 228 231 233 236 237 234 231 228 225 221 218 223 228 231 231 231 233 233 230 227 231 232 228 228 228 229 231
208 209 210 210 212 213 212 211 210 209 210 212 215 214 214 213 213 212 209 211 215 209 209 216 217 212 208 206 212 215 209 204 205 204 204 208 209 210 211 212 213 213 212 212 212 212 211 213 213 213 217 219 220 222 223 223 221 219 220 223 225 225 228 230 233 238 236 231 228 225 221 221 224 227 230 232 232 232 234 233 229 231 234 233 232 231 231 231
208 209 210 208 209 210 210 209 209 209 209 211 212 210 211 211 209 207 203 210 214 204 207 220 217 211 210 208 211 216 211 204 204 205 204 207 208 209 211 211 213 213 212 213 213 214 213 215 215 215 218 221 224 224 225 223 220 218 221 223 225 226 227 230 234 240 241 235 230 227 222 222 226 227 228 231 232 231 234 236 232 229 232 232 232 232 231 232
207 209 209 206 205 206 205 204 205 206 208 211 211 208 209 210 209 205 200 208 214 204 207 220 218 210 211 213 216 220 216 206 203 205 205 207 208 209 210 212 213 212 211 212 213 214 215 216 217 216 218 223 225 224 225 224 221 221 223 224 226 227 228 230 236 240 242 240 234 230 225 223 228 229 227 230 232 232 234 236 232 228 228 227 227 231 231 231
208 208 206 204 203 203 200 198 199 202 207 210 209 207 208 210 211 207 202 208 214 207 206 212 216 214 213 216 220 222 218 208 202 203 204 206 208 209 211 213 214 213 211 211 211 212 213 215 217 217 217 218 221 222 224 222 221 222 223 225 226 227 228 228 234 239 242 243 239 234 229 226 229 231 230 231 232 232 233 235 232 228 227 224 224 230 232 232
207 205 202 201 201 200 195 193 195 199 205 209 208 204 203 204 206 203 202 207 210 208 209 213 216 216 210 211 212 213 214 209 205 204 203 206 208 209 211 213 215 215 214 214 213 213 213 213 215 216 216 217 219 221 223 222 221 223 224 225 225 227 229 229 233 236 238 244 244 240 232 227 230 232 232 233 233 232 234 236 236 232 228 226 226 229 232 237
202 197 195 195 194 193 191 191 194 197 202 206 206 202 196 195 198 197 201 206 206 205 209 216 220 217 212 207 207 211 214 210 208 208 206 206 207 209 210 212 215 216 216 215 216 216 216 216 215 215 215 218 220 221 223 223 223 223 225 227 227 227 229 231 235 236 235 239 244 245 236 227 229 230 230 234 234 234 236 239 240 237 230 229 231 232 237 246
190 187 188 188 186 188 191 194 196 197 199 202 202 195 188 187 190 193 199 202 205 206 206 211 218 220 218 213 209 214 217 211 207 209 211 209 207 207 208 210 213 215 216 216 216 216 217 217 216 215 215 217 220 220 222 224 224 225 226 228 230 230 230 231 235 237 236 237 241 247 241 226 228 230 228 232 236 236 239 241 243 244 237 232 234 237 243 249
184 183 184 184 183 187 193 198 199 197 197 199 194 187 182 182 185 191 194 195 201 207 205 204 209 216 219 217 215 215 215 212 207 207 211 212 210 209 208 210 211 212 215 217 217 216 216 217 216 215 215 216 219 220 221 224 225 226 227 229 231 233 235 234 233 237 239 238 241 247 243 227 223 228 227 230 234 235 238 242 244 246 243 237 235 237 240 242
187 183 182 185 188 190 192 198 201 197 194 194 187 181 179 180 184 189 192 194 199 204 206 205 204 208 213 215 216 215 214 213 207 204 208 210 210 210 210 211 212 213 213 215 217 216 215 216 216 215 215 216 219 221 222 224 226 228 228 230 232 235 239 239 235 236 238 239 241 244 244 231 216 220 226 227 232 234 237 240 240 240 240 238 236 236 238 237
187 183 183 188 191 192 193 198 202 197 193 190 182 179 180 182 188 191 193 198 201 201 205 205 201 203 207 208 212 214 216 217 211 205 207 208 209 210 210 211 213 216 217 216 216 216 215 217 216 216 216 217 220 222 224 226 228 229 229 230 232 235 240 241 238 237 238 240 240 240 244 238 212 208 225 227 228 233 232 232 233 233 235 235 234 234 234 234
186 186 187 191 192 192 194 199 201 195 190 187 182 182 184 185 190 194 194 200 203 202 203 203 200 202 205 205 208 213 215 216 214 210 208 208 208 209 210 211 212 215 218 219 219 219 218 219 219 218 219 219 221 223 226 228 229 230 229 230 232 236 240 242 240 238 240 240 239 239 242 239 212 198 220 227 223 228 229 228 229 230 230 229 230 231 231 232
187 189 191 195 195 195 196 197 196 191 189 188 185 186 188 187 191 196 195 196 201 205 206 206 206 207 208 208 208 210 211 210 211 209 206 206 207 208 209 210 213 215 215 216 219 221 221 222 223 221 220 221 223 225 227 229 230 230 230 230 232 235 240 243 241 240 239 236 234 235 239 239 218 195 210 223 220 225 232 232 229 227 226 224 225 227 231 233
189 191 193 196 196 197 200 199 194 191 190 189 186 188 191 192 195 201 197 191 196 205 207 209 212 213 213 212 210 210 210 210 211 208 204 203 204 205 206 207 210 214 215 215 215 218 220 223 224 222 222 223 224 225 227 229 230 231 231 231 232 235 238 241 241 238 237 234 232 232 237 239 221 190 199 219 222 226 233 238 236 228 223 222 222 223 225 228
190 190 192 196 197 198 202 202 196 193 192 191 190 192 194 194 198 202 197 189 191 201 205 208 211 213 213 212 213 214 213 213 212 210 207 206 207 207 207 207 207 209 213 214 215 216 218 221 222 222 222 223 224 224 225 227 228 230 230 231 232 232 234 238 239 237 235 235 234 232 236 238 221 191 197 212 221 228 232 240 245 241 234 227 225 227 229 229
189 188 189 194 197 197 200 201 197 195 196 195 195 197 197 196 198 200 196 191 192 196 201 204 206 210 211 211 212 214 216 216 214 212 209 207 210 210 210 211 210 211 213 213 215 216 216 218 221 222 223 223 224 225 226 228 230 231 231 231 232 233 233 235 238 238 238 238 239 238 239 237 223 207 208 212 220 230 234 240 246 248 247 241 235 235 238 239
187 187 186 188 189 189 195 197 196 198 200 201 201 201 201 199 197 198 196 195 194 193 197 199 200 205 209 211 213 213 213 213 212 213 210 207 209 211 210 211 210 212 214 214 216 216 216 217 218 220 221 222 224 225 226 229 232 233 234 233 233 235 236 237 241 243 243 244 244 242 239 234 226 221 224 225 227 231 235 240 244 247 250 249 245 241 241 243
183 183 182 183 181 181 189 193 195 201 205 206 207 205 204 200 197 196 196 195 195 191 193 197 198 200 204 207 211 212 212 213 212 212 211 208 209 211 212 212 211 212 213 215 217 218 219 220 220 221 222 222 223 225 226 227 229 231 232 232 233 236 237 237 239 242 243 244 244 242 238 234 233 233 234 236 236 236 237 239 243 247 249 250 248 246 243 243
182 181 182 183 182 183 188 191 197 204 207 208 211 210 206 200 196 196 194 193 194 190 191 195 197 199 200 201 205 208 210 212 212 209 208 209 210 213 214 215 215 216 217 217 218 219 220 222 223 225 225 225 225 227 228 230 231 231 231 232 233 236 237 238 239 241 243 244 243 243 240 238 239 238 236 238 240 240 240 239 242 245 248 249 249 248 246 245
183 183 185 186 184 186 189 193 201 207 206 205 210 211 208 201 196 195 193 190 190 188 189 195 198 198 200 199 200 203 203 205 207 205 204 206 209 213 215 215 217 219 220 221 221 222 222 223 224 225 226 226 226 227 228 230 232 233 234 234 234 235 237 239 240 242 243 244 244 244 243 242 240 239 239 240 241 242 242 242 243 245 247 249 250 250 250 249
184 183 183 182 182 185 188 195 204 207 205 204 206 210 208 203 198 195 193 188 184 184 187 194 199 200 201 200 198 199 200 200 203 204 204 205 207 210 213 215 217 218 219 221 223 224 224 224 226 227 226 226 226 226 226 227 229 231 232 232 233 234 236 237 239 240 241 242 243 243 244 243 242 241 243 244 243 243 244 243 244 247 249 251 252 253 253 253
184 185 184 182 181 182 185 193 200 202 204 205 206 208 208 205 201 197 193 187 179 179 182 190 199 202 202 202 200 200 199 200 201 203 204 206 207 208 211 213 216 217 218 220 222 224 225 225 226 228 228 227 226 227 228 228 229 230 231 230 230 232 235 236 238 240 242 243 244 245 245 243 242 244 246 245 245 244 245 245 246 247 250 253 254 256 256 257
187 188 189 188 187 187 187 191 194 197 202 206 208 210 209 207 205 200 196 190 178 177 178 183 195 202 204 203 203 203 202 201 202 203 205 206 207 208 210 212 215 216 217 218 219 221 224 225 226 227 227 228 228 229 230 232 232 233 234 234 233 234 235 236 237 239 241 242 244 245 245 243 244 247 247 246 247 248 249 250 250 249 250 251 253 255 257 259
187 188 189 188 189 192 192 193 195 196 199 204 207 209 210 209 208 204 200 195 183 176 178 180 187 197 204 205 205 206 205 205 205 205 207 207 207 208 210 213 215 216 216 217 217 219 221 224 226 227 228 228 230 231 232 233 234 235 237 239 240 240 240 241 241 242 244 246 247 249 248 246 249 251 250 249 250 251 251 250 249 249 249 249 251 253 255 258
187 186 187 187 188 191 194 196 197 193 192 200 206 209 211 210 210 208 204 200 192 182 181 181 182 189 198 205 208 207 207 208 208 208 208 209 209 210 212 214 216 218 219 219 220 220 220 222 224 227 228 229 229 230 230 232 233 234 235 236 238 240 241 243 245 246 248 250 251 253 250 248 251 255 254 251 249 249 250 250 250 250 250 251 252 254 256 258
187 187 187 188 188 189 190 192 191 186 186 196 204 208 212 211 211 211 208 204 200 193 187 184 181 184 190 199 207 210 209 209 211 211 210 209 210 210 213 216 218 219 220 220 221 221 220 220 221 224 227 227 228 229 229 231 231 232 233 235 237 239 241 242 243 244 246 246 248 251 249 246 248 254 255 253 251 248 247 249 250 251 251 253 256 259 261 263
187 187 188 189 190 190 188 187 187 188 191 197 202 207 213 214 213 213 211 207 204 201 195 189 184 183 185 192 202 211 212 211 212 212 211 210 210 210 213 217 219 221 222 222 223 222 221 221 221 221 223 225 225 225 226 227 230 232 234 236 239 241 242 243 243 244 244 243 244 246 246 244 246 249 251 253 253 251 249 249 251 253 256 259 262 264 265 266
187 187 188 189 191 192 190 189 190 193 197 199 200 204 211 215 215 215 213 210 208 205 202 196 188 183 182 186 196 207 213 213 211 211 211 210 210 211 213 216 218 220 223 225 225 225 225 225 224 224 225 226 227 228 229 231 233 235 235 236 238 240 241 242 243 244 243 243 244 244 244 245 247 249 251 253 254 255 254 255 257 259 261 263 264 264 264 265
188 189 189 189 191 192 192 190 190 192 194 197 198 202 209 214 216 216 215 213 211 209 206 202 194 186 182 183 190 201 209 213 212 211 211 211 211 212 213 214 216 218 221 224 226 226 227 228 228 229 231 233 235 236 236 236 236 236 237 238 238 238 239 240 240 242 243 244 245 245 245 247 249 252 255 256 258 261 262 262 261 262 263 263 262 262 263 263
186 190 192 192 191 192 192 191 191 191 191 194 198 202 207 212 214 216 217 216 214 212 210 205 198 191 187 184 184 192 202 209 212 213 214 214 214 214 214 214 216 217 220 223 226 227 228 230 230 232 233 235 237 237 237 238 239 239 240 240 240 239 240 240 242 244 245 246 247 247 249 250 250 253 257 260 263 266 266 265 262 260 261 262 261 260 260 262
184 186 191 194 195 195 194 193 192 192 192 194 197 201 206 210 212 215 217 218 218 216 214 209 203 197 193 189 187 186 192 201 208 213 216 217 217 217 217 217 219 221 222 225 226 228 229 231 232 234 234 234 235 236 235 236 238 238 239 240 241 242 243 244 246 248 248 250 251 251 252 253 252 254 258 260 261 261 261 261 261 259 260 261 262 261 261 263
184 184 186 190 194 196 196 194 192 193 194 195 197 201 204 207 210 213 215 218 220 220 217 213 208 204 200 195 193 191 190 193 200 207 214 217 218 218 218 219 220 223 225 226 227 228 229 231 231 232 233 233 234 234 234 233 234 235 235 235 236 238 240 242 243 244 246 248 249 248 248 249 249 250 252 253 255 256 256 257 259 260 261 263 263 263 264 265
185 186 186 186 189 192 193 191 190 192 194 196 198 201 205 208 210 212 214 216 219 221 220 217 213 211 208 202 198 197 196 195 198 203 209 214 217 218 220 221 222 224 226 227 228 228 229 230 229 229 231 233 233 232 233 234 234 234 234 234 234 235 235 236 238 239 241 243 245 245 246 247 247 248 249 250 253 255 256 257 259 262 264 265 264 264 265 266
185 186 186 186 186 189 190 190 190 191 192 194 197 201 206 211 212 213 215 215 216 218 219 218 217 215 213 209 204 201 197 197 200 204 206 209 212 216 219 221 222 224 225 226 227 228 229 230 229 227 230 232 232 233 234 234 235 235 235 234 235 236 237 237 238 240 243 245 246 246 246 248 248 249 250 252 254 255 256 258 260 262 264 265 265 264 264 265
184 184 185 185 185 186 187 187 190 192 192 192 193 196 201 206 209 212 215 217 217 217 218 219 218 218 216 214 212 208 203 199 198 201 204 205 207 212 217 219 220 222 224 225 227 228 229 229 229 228 229 230 232 234 235 236 236 236 234 235 237 239 240 240 240 241 243 245 245 246 247 249 250 249 249 250 252 254 255 257 258 259 261 263 263 263 263 263
Height
5611 5617 5623 5629 5633 5636 5641 5642 5648 5660 5668 5673 5679 5682 5690 5704 5710 5711 5717 5723 5730 5737 5744 5754 5758 5761 5767 5771 5775 5780 5785 5788 5792 5795 5802 5809 5814 5817 5819 5822 5825 5828 5831 5832 5835 5839 5843 5845 5848 5851 5853 5855 5857 5858 5859 5860 5862 5865 5866 5868 5869 5868 5869 5872 5877 5881 5880 5879 5881 5881 5883 5883 5884 5885 5886 5887 5888 5889 5890 5891 5891 5891 5891 5892 5894 5895 5896 5896
5603 5610 5616 5622 5627 5630 5634 5635 5641 5654 5662 5668 5674 5677 5685 5697 5705 5707 5712 5718 5724 5731 5737 5745 5752 5757 5763 5768 5773 5777 5781 5785 5788 5792 5800 5806 5809 5813 5817 5819 5822 5825 5827 5830 5835 5839 5842 5844 5846 5849 5851 5852 5855 5856 5857 5859 5861 5862 5864 5866 5866 5866 5869 5874 5877 5879 5878 5879 5880 5881 5882 5882 5883 5884 5885 5886 5887 5888 5890 5891 5891 5891 5891 5891 5892 5893 5895 5896
5596 5603 5609 5615 5621 5624 5628 5629 5633 5648 5657 5661 5669 5674 5680 5690 5700 5704 5707 5712 5719 5726 5733 5740 5747 5753 5759 5765 5770 5773 5777 5781 5783 5790 5798 5801 5805 5811 5814 5816 5819 5823 5825 5829 5833 5836 5839 5840 5842 5846 5848 5850 5852 5854 5856 5857 5859 5860 5862 5864 5863 5865 5871 5874 5876 5877 5877 5878 5879 5880 5882 5882 5883 5883 5884 5885 5886 5888 5889 5890 5891 5891 5890 5891 5891 5892 5893 5894
5589 5595 5602 5608 5614 5618 5622 5623 5626 5640 5651 5654 5663 5670 5675 5684 5694 5700 5703 5708 5714 5721 5729 5737 5744 5750 5755 5761 5764 5768 5773 5775 5780 5789 5794 5798 5803 5808 5810 5813 5816 5820 5823 5826 5829 5832 5835 5837 5839 5842 5845 5847 5849 5852 5854 5856 5857 5859 5861 5862 5862 5866 5871 5872 5874 5876 5876 5876 5877 5880 5881 5881 5881 5882 5883 5884 5886 5887 5888 5889 5890 5890 5890 5890 5891 5892 5893 5894
5582 5588 5595 5601 5608 5612 5615 5618 5620 5631 5643 5648 5657 5666 5671 5678 5687 5694 5699 5704 5710 5716 5723 5731 5739 5747 5753 5757 5759 5763 5767 5770 5779 5788 5790 5795 5801 5805 5808 5811 5814 5817 5820 5823 5827 5830 5833 5835 5837 5839 5843 5846 5848 5850 5853 5855 5856 5858 5859 5860 5861 5865 5869 5870 5872 5873 5874 5875 5876 5879 5879 5878 5880 5881 5882 5883 5885 5886 5886 5887 5888 5889 5889 5890 5891 5891 5893 5894
5574 5581 5588 5594 5601 5606 5609 5614 5616 5623 5635 5641 5649 5659 5666 5673 5678 5686 5697 5702 5707 5713 5716 5723 5732 5741 5749 5755 5756 5757 5761 5768 5779 5784 5785 5792 5798 5802 5805 5808 5811 5814 5817 5820 5824 5827 5830 5833 5835 5837 5842 5846 5848 5850 5852 5853 5855 5857 5858 5859 5860 5864 5867 5868 5870 5871 5873 5874 5875 5877 5876 5877 5879 5880 5881 5882 5883 5884 5885 5886 5887 5888 5889 5890 5891 5891 5893 5893
5566 5573 5581 5587 5594 5600 5603 5608 5612 5616 5627 5634 5641 5653 5661 5668 5670 5680 5696 5700 5703 5709 5713 5719 5727 5736 5743 5749 5750 5750 5757 5767 5775 5779 5782 5789 5794 5798 5801 5804 5808 5811 5814 5817 5820 5825 5828 5831 5834 5837 5840 5843 5846 5848 5850 5851 5853 5855 5857 5857 5859 5862 5865 5866 5867 5869 5871 5873 5874 5875 5876 5877 5879 5879 5880 5881 5882 5883 5884 5886 5886 5888 5889 5889 5890 5891 5892 5892
5558 5566 5573 5580 5586 5593 5597 5603 5608 5611 5619 5626 5633 5645 5655 5662 5665 5676 5692 5697 5699 5705 5710 5717 5723 5731 5736 5738 5741 5744 5753 5762 5770 5776 5779 5785 5791 5794 5797 5801 5805 5808 5812 5815 5818 5823 5827 5830 5833 5835 5838 5841 5843 5844 5847 5849 5851 5853 5854 5856 5857 5860 5863 5863 5865 5867 5869 5871 5872 5874 5875 5876 5877 5878 5879 5880 5881 5882 5884 5885 5885 5887 5888 5889 5890 5890 5891 5891
5550 5558 5565 5573 5579 5586 5591 5597 5604 5606 5613 5620 5626 5639 5649 5656 5661 5672 5688 5692 5694 5699 5706 5712 5718 5726 5730 5732 5734 5738 5752 5762 5766 5772 5775 5781 5787 5790 5794 5798 5802 5805 5809 5812 5815 5820 5824 5828 5830 5833 5836 5838 5839 5841 5844 5846 5849 5851 5851 5853 5855 5858 5861 5862 5863 5864 5866 5869 5870 5872 5873 5875 5876 5877 5878 5879 5880 5880 5882 5883 5884 5886 5887 5888 5889 5890 5890 5891
5542 5550 5557 5566 5573 5580 5586 5591 5598 5601 5607 5613 5620 5633 5643 5651 5658 5669 5683 5687 5688 5694 5701 5707 5714 5720 5723 5726 5728 5735 5751 5757 5760 5768 5772 5777 5782 5786 5790 5794 5799 5803 5806 5810 5812 5817 5823 5826 5828 5831 5833 5835 5836 5839 5842 5844 5846 5847 5848 5851 5854 5856 5859 5860 5861 5863 5865 5867 5869 5870 5871 5873 5875 5876 5877 5877 5877 5878 5880 5882 5883 5884 5886 5887 5888 5890 5890 5891
5533 5542 5550 5558 5566 5573 5580 5585 5592 5597 5601 5607 5615 5627 5637 5646 5654 5665 5677 5682 5684 5690 5696 5703 5710 5714 5717 5720 5723 5735 5747 5747 5753 5765 5768 5773 5779 5783 5787 5791 5795 5800 5804 5807 5809 5815 5821 5823 5825 5828 5830 5833 5835 5837 5839 5841 5843 5844 5845 5849 5852 5854 5855 5857 5859 5861 5863 5865 5867 5868 5869 5871 5874 5876 5875 5874 5875 5877 5878 5881 5883 5883 5885 5886 5887 5889 5890 5890
5525 5533 5541 5550 5558 5566 5573 5578 5585 5592 5595 5600 5610 5622 5632 5641 5649 5660 5671 5676 5679 5684 5691 5700 5707 5712 5715 5715 5719 5732 5739 5739 5749 5759 5763 5769 5775 5780 5784 5788 5793 5797 5802 5805 5808 5813 5817 5820 5822 5825 5828 5831 5833 5834 5836 5838 5840 5841 5843 5847 5849 5850 5853 5856 5858 5859 5861 5863 5864 5865 5867 5870 5873 5874 5871 5872 5875 5876 5877 5879 5881 5883 5884 5885 5886 5887 5888 5890
5517 5525 5533 5541 5549 5557 5565 5572 5579 5586 5589 5594 5605 5617 5626 5636 5645 5655 5664 5669 5674 5679 5686 5697 5705 5709 5709 5710 5717 5726 5730 5734 5744 5752 5758 5763 5768 5774 5779 5783 5788 5793 5797 5801 5804 5809 5813 5816 5819 5821 5825 5828 5830 5831 5833 5835 5837 5839 5841 5844 5845 5847 5851 5855 5856 5857 5859 5862 5862 5863 5866 5869 5871 5870 5869 5872 5874 5875 5877 5878 5879 5881 5882 5884 5885 5886 5887 5888
5509 5516 5524 5532 5540 5549 5558 5566 5572 5579 5584 5587 5598 5611 5620 5631 5640 5649 5657 5661 5668 5673 5681 5693 5700 5702 5704 5708 5714 5718 5722 5728 5736 5746 5753 5758 5763 5769 5773 5778 5783 5788 5792 5796 5799 5804 5809 5812 5815 5818 5821 5825 5827 5828 5830 5833 5835 5836 5838 5841 5843 5846 5850 5852 5853 5855 5857 5859 5860 5860 5864 5868 5868 5868 5869 5871 5873 5874 5875 5876 5877 5879 5881 5882 5883 5884 5886 5887
5501 5508 5516 5523 5532 5541 5550 5559 5565 5572 5577 5579 5589 5604 5615 5626 5634 5643 5650 5654 5662 5669 5677 5687 5693 5696 5699 5702 5707 5711 5716 5722 5729 5741 5749 5754 5760 5765 5770 5775 5780 5784 5787 5791 5796 5801 5805 5808 5811 5814 5817 5821 5824 5825 5827 5830 5832 5832 5834 5839 5842 5845 5847 5849 5851 5853 5855 5856 5857 5858 5863 5866 5865 5866 5867 5869 5871 5872 5873 5874 5875 5877 5878 5880 5882 5883 5884 5886
5494 5501 5508 5515 5524 5533 5541 5551 5559 5565 5570 5573 5582 5596 5608 5619 5627 5636 5645 5649 5657 5668 5673 5676 5683 5691 5694 5696 5702 5706 5710 5717 5727 5737 5743 5750 5757 5762 5767 5771 5775 5780 5783 5787 5792 5796 5800 5803 5806 5808 5812 5817 5820 5822 5824 5826 5827 5829 5833 5838 5841 5843 5845 5847 5848 5850 5852 5853 5855 5857 5860 5863 5863 5864 5865 5866 5869 5870 5871 5873 5873 5875 5876 5878 5880 5881 5883 5884
5489 5495 5501 5509 5516 5524 5533 5542 5551 5558 5564 5568 5575 5588 5599 5609 5619 5629 5640 5645 5651 5663 5669 5673 5683 5691 5691 5692 5696 5700 5706 5715 5724 5732 5738 5745 5751 5755 5761 5767 5771 5775 5779 5782 5786 5790 5793 5796 5800 5804 5808 5812 5816 5818 5819 5821 5823 5828 5834 5837 5839 5841 5843 5845 5846 5847 5849 5850 5852 5854 5858 5861 5860 5861 5862 5864 5866 5867 5869 5871 5872 5873 5874 5876 5877 5879 5881 5882
5485 5491 5497 5503 5510 5517 5525 5534 5543 5550 5557 5563 5568 5578 5590 5601 5610 5619 5632 5639 5645 5657 5666 5672 5677 5676 5677 5684 5692 5699 5706 5714 5721 5728 5734 5739 5744 5750 5756 5762 5765 5769 5773 5776 5780 5785 5788 5792 5797 5801 5804 5808 5811 5812 5814 5818 5824 5830 5835 5836 5837 5838 5840 5842 5844 5844 5845 5847 5849 5851 5855 5858 5857 5858 5860 5862 5863 5864 5866 5868 5870 5871 5872 5874 5876 5877 5879 5880
5482 5487 5493 5499 5506 5512 5519 5527 5535 5542 5549 5555 5560 5570 5582 5592 5600 5610 5626 5632 5634 5645 5652 5653 5658 5665 5676 5687 5695 5701 5706 5712 5717 5722 5727 5732 5738 5744 5750 5755 5759 5763 5767 5772 5777 5782 5786 5789 5793 5796 5799 5803 5806 5809 5813 5819 5825 5830 5832 5832 5833 5835 5837 5839 5840 5841 5842 5844 5846 5849 5853 5855 5854 5856 5858 5859 5860 5862 5864 5866 5868 5870 5871 5873 5874 5876 5877 5878
5477 5484 5489 5496 5502 5507 5514 5521 5528 5535 5541 5546 5552 5562 5570 5577 5584 5595 5614 5621 5625 5642 5650 5651 5661 5674 5685 5689 5692 5696 5700 5705 5712 5717 5722 5727 5733 5738 5743 5748 5752 5756 5763 5769 5775 5780 5784 5787 5790 5795 5799 5803 5805 5809 5814 5819 5824 5826 5826 5827 5828 5831 5834 5837 5838 5839 5840 5842 5844 5846 5849 5851 5851 5853 5855 5855 5857 5859 5862 5864 5867 5869 5870 5872 5873 5874 5875 5876
5474 5480 5485 5492 5498 5503 5508 5515 5521 5530 5537 5542 5549 5556 5561 5568 5576 5589 5608 5616 5626 5644 5652 5656 5665 5672 5678 5682 5688 5695 5697 5700 5707 5714 5719 5722 5727 5732 5736 5741 5745 5751 5758 5765 5770 5776 5780 5783 5788 5794 5800 5803 5805 5808 5812 5817 5821 5822 5822 5823 5825 5829 5832 5835 5836 5837 5838 5839 5841 5842 5845 5848 5849 5850 5852 5852 5854 5858 5860 5861 5864 5866 5867 5869 5870 5872 5873 5874
5470 5476 5482 5489 5494 5498 5504 5512 5519 5527 5533 5537 5544 5554 5564 5574 5586 5603 5616 5621 5628 5638 5644 5649 5655 5661 5669 5676 5684 5692 5693 5696 5701 5704 5709 5715 5720 5726 5732 5738 5743 5749 5754 5757 5761 5768 5773 5779 5785 5791 5796 5800 5802 5804 5809 5813 5817 5817 5818 5819 5822 5826 5830 5833 5835 5835 5836 5837 5838 5839 5843 5846 5846 5847 5849 5850 5853 5856 5857 5858 5861 5863 5864 5867 5869 5870 5871 5872
5466 5473 5480 5485 5489 5495 5502 5510 5518 5524 5528 5533 5542 5553 5564 5574 5588 5606 5615 5621 5629 5636 5639 5640 5644 5653 5661 5664 5673 5681 5685 5691 5696 5697 5703 5711 5717 5725 5731 5736 5741 5746 5749 5754 5759 5764 5769 5774 5780 5785 5790 5794 5797 5800 5805 5809 5812 5812 5814 5816 5820 5825 5828 5831 5832 5832 5834 5834 5835 5837 5841 5844 5844 5844 5847 5848 5850 5852 5854 5856 5858 5860 5863 5865 5867 5867 5869 5870
5463 5471 5476 5480 5487 5494 5502 5508 5514 5520 5526 5534 5543 5553 5564 5575 5590 5603 5610 5619 5627 5632 5636 5639 5643 5651 5657 5664 5673 5679 5683 5690 5696 5700 5702 5707 5713 5719 5726 5732 5737 5742 5747 5754 5760 5764 5769 5773 5777 5781 5786 5790 5794 5797 5802 5805 5808 5809 5811 5814 5819 5823 5826 5828 5828 5829 5831 5832 5834 5835 5838 5841 5841 5841 5844 5846 5847 5850 5852 5854 5855 5858 5861 5863 5864 5865 5867 5868
5461 5468 5473 5479 5487 5494 5502 5506 5511 5518 5526 5533 5541 5553 5565 5578 5592 5601 5608 5617 5623 5627 5631 5635 5639 5643 5652 5665 5672 5676 5683 5687 5692 5698 5702 5705 5708 5712 5719 5725 5731 5737 5744 5750 5755 5760 5765 5770 5775 5779 5784 5788 5791 5795 5799 5803 5805 5808 5810 5814 5818 5821 5823 5824 5825 5826 5828 5830 5832 5834 5835 5838 5838 5839 5842 5843 5845 5849 5850 5851 5854 5856 5858 5860 5862 5863 5864 5865
5460 5466 5472 5480 5487 5493 5499 5503 5508 5517 5524 5531 5540 5553 5567 5578 5588 5597 5606 5613 5616 5620 5621 5622 5628 5634 5644 5656 5661 5668 5676 5678 5684 5691 5697 5702 5708 5713 5717 5720 5724 5731 5739 5745 5749 5754 5759 5765 5770 5775 5781 5785 5788 5792 5796 5799 5802 5805 5808 5813 5816 5818 5819 5820 5822 5824 5825 5828 5831 5832 5833 5835 5836 5838 5840 5842 5844 5846 5848 5850 5852 5854 5855 5857 5858 5859 5860 5861
5459 5466 5472 5479 5486 5490 5495 5499 5505 5514 5522 5531 5541 5554 5565 5574 5583 5592 5604 5607 5605 5611 5615 5616 5623 5631 5639 5647 5654 5660 5663 5667 5677 5682 5686 5694 5702 5709 5713 5717 5722 5727 5732 5737 5742 5748 5755 5760 5765 5770 5776 5780 5783 5788 5792 5795 5799 5803 5808 5812 5814 5815 5815 5816 5819 5821 5823 5826 5828 5829 5830 5832 5835 5837 5839 5840 5842 5844 5847 5848 5850 5851 5851 5853 5854 5855 5857 5858
5458 5465 5471 5478 5484 5490 5496 5500 5506 5516 5526 5534 5543 5553 5561 5569 5580 5590 5596 5595 5594 5602 5609 5614 5624 5630 5636 5643 5651 5658 5662 5669 5674 5675 5681 5689 5695 5702 5708 5715 5721 5726 5730 5734 5740 5746 5751 5755 5760 5766 5770 5774 5779 5785 5789 5794 5797 5802 5807 5809 5812 5813 5811 5812 5816 5819 5820 5823 5825 5827 5829 5830 5834 5837 5837 5838 5841 5843 5845 5846 5846 5847 5848 5849 5851 5852 5854 5855
5458 5465 5471 5475 5481 5487 5493 5498 5507 5518 5526 5533 5541 5549 5556 5568 5580 5586 5587 5586 5590 5598 5605 5613 5622 5625 5628 5636 5644 5651 5660 5667 5670 5675 5682 5685 5690 5697 5703 5710 5717 5721 5727 5734 5739 5743 5747 5753 5758 5762 5766 5772 5778 5783 5787 5792 5795 5799 5803 5806 5808 5809 5808 5809 5812 5816 5817 5819 5822 5825 5826 5827 5831 5835 5835 5837 5840 5841 5842 5843 5844 5845 5846 5847 5848 5850 5851 5853
5457 5463 5468 5473 5478 5484 5488 5494 5504 5513 5520 5528 5536 5544 5552 5563 5572 5573 5572 5576 5584 5591 5598 5607 5613 5614 5620 5628 5634 5642 5651 5657 5663 5670 5674 5678 5685 5691 5698 5706 5711 5714 5719 5727 5733 5739 5746 5750 5752 5757 5764 5771 5776 5780 5784 5787 5790 5794 5798 5802 5804 5805 5805 5805 5809 5813 5813 5813 5817 5822 5823 5825 5829 5832 5835 5836 5838 5839 5840 5841 5841 5842 5843 5845 5846 5848 5849 5850
5456 5461 5466 5473 5478 5484 5489 5494 5501 5506 5513 5523 5532 5538 5545 5554 5559 5558 5560 5570 5579 5584 5591 5600 5605 5608 5616 5622 5627 5636 5646 5651 5655 5660 5665 5672 5678 5682 5688 5693 5698 5705 5711 5717 5725 5733 5739 5742 5747 5755 5761 5764 5769 5774 5778 5782 5785 5788 5792 5797 5800 5801 5801 5801 5804 5807 5807 5808 5813 5818 5820 5823 5827 5832 5835 5835 5837 5837 5838 5838 5839 5840 5842 5843 5844 5845 5846 5847
5454 5459 5465 5471 5477 5483 5489 5495 5502 5506 5510 5518 5527 5532 5535 5541 5545 5549 5558 5569 5574 5577 5584 5593 5599 5605 5614 5621 5626 5634 5639 5644 5650 5655 5662 5668 5670 5675 5680 5682 5688 5695 5700 5710 5721 5727 5733 5738 5745 5751 5755 5759 5764 5768 5771 5775 5779 5782 5787 5792 5794 5796 5797 5796 5797 5801 5803 5804 5809 5816 5818 5820 5825 5831 5833 5834 5835 5835 5835 5836 5837 5838 5840 5842 5843 5844 5845 5846
5452 5456 5461 5468 5475 5480 5485 5493 5500 5505 5508 5514 5521 5525 5528 5531 5535 5544 5557 5565 5568 5572 5580 5589 5596 5603 5612 5617 5621 5629 5636 5641 5647 5652 5659 5664 5667 5674 5679 5683 5690 5694 5699 5709 5715 5720 5728 5733 5738 5743 5748 5754 5758 5762 5766 5771 5774 5777 5782 5787 5788 5790 5792 5792 5793 5797 5801 5803 5807 5814 5816 5817 5823 5828 5830 5832 5833 5833 5834 5835 5835 5836 5838 5840 5842 5842 5843 5844
5448 5453 5459 5466 5472 5477 5482 5488 5495 5500 5504 5509 5513 5517 5519 5523 5532 5545 5555 5561 5566 5572 5578 5586 5594 5601 5609 5612 5616 5624 5630 5636 5643 5649 5653 5655 5659 5665 5670 5677 5686 5693 5700 5706 5707 5713 5720 5723 5730 5737 5743 5749 5754 5758 5764 5768 5771 5774 5779 5783 5785 5787 5790 5791 5793 5795 5799 5802 5804 5809 5812 5812 5818 5825 5827 5829 5830 5831 5832 5833 5833 5834 5836 5838 5840 5840 5841 5842
5444 5451 5458 5464 5469 5474 5479 5485 5490 5495 5500 5504 5508 5511 5513 5521 5533 5544 5552 5560 5566 5570 5576 5583 5590 5597 5604 5609 5615 5622 5626 5631 5639 5644 5645 5647 5652 5658 5663 5671 5680 5686 5692 5698 5705 5714 5719 5724 5732 5736 5739 5746 5751 5754 5758 5761 5764 5768 5772 5776 5779 5783 5786 5788 5790 5791 5794 5797 5798 5802 5807 5810 5815 5821 5824 5825 5827 5829 5830 5831 5831 5832 5834 5835 5837 5838 5839 5840
5443 5449 5455 5461 5468 5474 5479 5484 5488 5491 5497 5502 5505 5507 5514 5524 5535 5544 5553 5561 5565 5569 5574 5579 5586 5592 5597 5602 5609 5615 5620 5627 5634 5637 5640 5645 5652 5656 5662 5672 5679 5684 5690 5697 5705 5711 5716 5724 5731 5733 5737 5744 5748 5751 5756 5758 5760 5763 5767 5771 5777 5780 5782 5784 5786 5788 5790 5791 5793 5797 5802 5807 5811 5816 5820 5822 5823 5825 5827 5828 5829 5829 5831 5832 5834 5835 5836 5838
5442 5447 5454 5460 5466 5472 5477 5482 5485 5488 5494 5500 5502 5507 5516 5526 5534 5545 5555 5560 5562 5567 5572 5576 5580 5585 5588 5593 5601 5607 5613 5621 5627 5631 5634 5642 5649 5653 5660 5669 5675 5682 5691 5698 5703 5708 5715 5722 5724 5727 5733 5738 5743 5748 5751 5753 5756 5759 5764 5771 5775 5776 5777 5780 5783 5785 5786 5787 5789 5793 5797 5803 5807 5811 5816 5819 5820 5822 5824 5825 5826 5827 5828 5829 5830 5832 5833 5834
5441 5447 5453 5458 5463 5469 5475 5480 5483 5486 5491 5496 5501 5507 5515 5522 5531 5541 5550 5555 5558 5563 5570 5573 5576 5579 5583 5589 5596 5602 5608 5615 5620 5625 5630 5637 5642 5648 5656 5665 5672 5680 5687 5694 5700 5706 5713 5717 5718 5722 5727 5731 5736 5739 5741 5744 5749 5753 5759 5765 5768 5769 5772 5776 5777 5779 5781 5783 5785 5788 5792 5798 5803 5808 5813 5816 5817 5819 5820 5822 5823 5824 5825 5825 5827 5828 5830 5831
5440 5446 5451 5456 5461 5467 5473 5478 5481 5484 5488 5493 5499 5504 5510 5517 5525 5535 5545 5551 5555 5559 5565 5570 5574 5578 5582 5588 5595 5599 5604 5611 5615 5620 5626 5632 5638 5647 5656 5663 5669 5676 5682 5689 5695 5701 5706 5709 5712 5717 5722 5726 5729 5730 5733 5740 5744 5747 5751 5756 5759 5762 5767 5770 5771 5774 5778 5780 5782 5784 5787 5793 5800 5806 5809 5811 5814 5815 5816 5819 5820 5821 5822 5822 5823 5824 5825 5827
5438 5444 5449 5454 5459 5464 5470 5475 5479 5482 5485 5490 5496 5501 5507 5513 5521 5531 5541 5547 5550 5554 5560 5567 5572 5576 5580 5587 5593 5597 5603 5609 5612 5617 5623 5630 5640 5648 5654 5660 5666 5672 5679 5684 5689 5694 5699 5701 5706 5711 5713 5715 5720 5726 5733 5740 5742 5745 5748 5751 5754 5757 5761 5764 5767 5770 5773 5776 5779 5780 5782 5788 5796 5801 5805 5807 5810 5811 5813 5815 5816 5817 5819 5819 5820 5821 5822 5823
5437 5443 5447 5452 5457 5462 5467 5471 5476 5479 5484 5488 5492 5498 5504 5510 5518 5527 5536 5544 5548 5553 5559 5564 5570 5575 5580 5585 5590 5595 5601 5605 5610 5615 5620 5627 5636 5643 5650 5658 5663 5668 5672 5676 5679 5686 5691 5696 5701 5703 5705 5711 5719 5726 5733 5736 5738 5742 5745 5748 5752 5756 5759 5762 5765 5769 5772 5774 5777 5779 5780 5784 5790 5796 5801 5805 5806 5807 5809 5810 5811 5813 5814 5815 5816 5817 5819 5820
5436 5440 5444 5450 5455 5460 5465 5470 5474 5478 5483 5486 5490 5495 5500 5507 5514 5521 5531 5541 5547 5551 5555 5560 5565 5571 5577 5582 5588 5592 5597 5601 5606 5610 5617 5626 5634 5643 5652 5657 5660 5663 5667 5672 5677 5682 5687 5691 5694 5696 5701 5710 5715 5719 5725 5729 5732 5735 5737 5742 5746 5749 5754 5759 5763 5768 5771 5773 5776 5776 5777 5781 5786 5790 5795 5800 5802 5803 5804 5805 5806 5808 5809 5810 5812 5814 5815 5817
5434 5439 5443 5449 5453 5457 5462 5468 5472 5476 5480 5484 5489 5494 5498 5504 5511 5517 5527 5537 5544 5547 5550 5555 5561 5567 5573 5580 5585 5589 5593 5598 5603 5609 5618 5627 5636 5644 5649 5651 5654 5657 5662 5667 5671 5673 5677 5681 5685 5690 5696 5702 5707 5713 5719 5721 5722 5725 5730 5736 5740 5744 5752 5756 5759 5763 5766 5768 5770 5769 5771 5777 5783 5785 5788 5792 5796 5799 5800 5801 5802 5803 5804 5807 5808 5810 5812 5813
5434 5438 5442 5447 5451 5455 5460 5465 5471 5475 5479 5484 5489 5493 5497 5502 5508 5515 5524 5533 5540 5544 5548 5552 5557 5563 5569 5575 5581 5586 5590 5595 5601 5609 5617 5624 5631 5638 5641 5644 5649 5652 5657 5661 5661 5665 5672 5675 5678 5683 5687 5690 5695 5702 5706 5709 5713 5721 5729 5735 5738 5744 5749 5749 5753 5757 5758 5761 5763 5763 5767 5774 5778 5780 5782 5785 5788 5792 5795 5797 5798 5800 5801 5803 5805 5806 5807 5808
5432 5436 5440 5445 5449 5454 5459 5466 5471 5476 5480 5485 5490 5494 5497 5501 5506 5513 5521 5529 5536 5541 5546 5550 5555 5560 5566 5571 5577 5582 5587 5592 5598 5604 5611 5618 5624 5629 5633 5639 5645 5649 5655 5657 5658 5665 5670 5670 5673 5677 5677 5679 5686 5694 5700 5707 5714 5720 5725 5730 5735 5740 5740 5743 5748 5748 5748 5754 5755 5757 5765 5771 5773 5775 5777 5780 5782 5786 5791 5794 5795 5796 5798 5799 5801 5801 5802 5802
5431 5434 5439 5444 5448 5453 5459 5465 5470 5475 5479 5484 5488 5492 5495 5499 5505 5510 5517 5525 5532 5538 5543 5548 5553 5557 5562 5566 5572 5578 5583 5589 5595 5599 5605 5611 5616 5622 5629 5635 5640 5645 5650 5651 5654 5662 5664 5665 5671 5675 5677 5683 5691 5698 5705 5709 5713 5716 5720 5725 5729 5731 5732 5736 5737 5736 5744 5749 5747 5753 5764 5767 5769 5772 5773 5775 5778 5781 5786 5789 5790 5792 5792 5794 5795 5795 5795 5795
5430 5435 5439 5443 5447 5452 5458 5463 5468 5472 5477 5482 5486 5490 5494 5498 5503 5508 5515 5522 5529 5535 5540 5546 5550 5554 5558 5563 5569 5573 5579 5585 5591 5596 5602 5607 5613 5621 5627 5632 5635 5639 5643 5645 5649 5655 5657 5660 5667 5672 5678 5685 5689 5694 5701 5706 5709 5715 5719 5721 5724 5725 5727 5728 5728 5735 5745 5741 5739 5754 5764 5762 5767 5770 5768 5772 5776 5777 5780 5782 5783 5785 5785 5786 5788 5789 5789 5789
5429 5434 5439 5443 5447 5452 5457 5463 5468 5472 5476 5480 5485 5489 5493 5498 5502 5508 5513 5520 5527 5533 5539 5544 5549 5552 5555 5560 5565 5570 5576 5581 5586 5592 5598 5603 5610 5616 5621 5625 5629 5633 5637 5640 5644 5648 5650 5656 5664 5670 5675 5679 5682 5687 5695 5699 5703 5709 5712 5715 5719 5720 5722 5725 5728 5738 5741 5733 5739 5758 5760 5757 5763 5766 5766 5770 5771 5770 5773 5774 5775 5776 5776 5779 5781 5783 5784 5784
5428 5433 5438 5443 5449 5453 5458 5462 5467 5471 5475 5479 5484 5488 5492 5496 5500 5505 5511 5518 5524 5529 5536 5542 5547 5550 5553 5557 5562 5567 5572 5577 5583 5588 5593 5599 5605 5611 5615 5619 5623 5627 5631 5635 5639 5642 5646 5654 5660 5665 5670 5674 5677 5682 5687 5691 5695 5699 5702 5706 5711 5713 5716 5720 5725 5732 5733 5728 5738 5752 5750 5750 5759 5761 5762 5765 5762 5763 5767 5767 5767 5768 5770 5773 5776 5776 5778 5779
5428 5433 5438 5443 5448 5453 5457 5461 5465 5469 5473 5477 5482 5486 5489 5493 5497 5502 5509 5515 5520 5526 5532 5538 5543 5546 5550 5554 5558 5563 5568 5574 5580 5585 5590 5596 5601 5606 5610 5614 5620 5624 5626 5630 5633 5637 5644 5650 5655 5661 5664 5666 5671 5677 5680 5683 5687 5691 5694 5699 5702 5704 5707 5711 5716 5723 5723 5722 5734 5743 5740 5744 5754 5755 5756 5759 5758 5759 5760 5761 5763 5764 5765 5768 5770 5770 5772 5773
5428 5433 5438 5442 5446 5450 5455 5460 5464 5468 5472 5476 5480 5483 5486 5491 5495 5500 5505 5510 5515 5521 5525 5530 5535 5540 5545 5550 5554 5559 5563 5569 5575 5580 5585 5591 5595 5599 5603 5608 5614 5618 5621 5625 5628 5633 5640 5644 5649 5655 5656 5658 5668 5672 5672 5677 5681 5681 5684 5690 5694 5696 5701 5707 5713 5718 5718 5720 5730 5732 5731 5741 5751 5751 5753 5755 5754 5753 5754 5757 5760 5760 5761 5762 5761 5763 5766 5766
5426 5431 5436 5440 5445 5449 5453 5458 5463 5467 5471 5474 5477 5480 5484 5489 5493 5497 5502 5506 5511 5515 5518 5523 5529 5535 5541 5546 5549 5553 5558 5564 5570 5576 5580 5585 5589 5594 5598 5603 5608 5613 5618 5622 5625 5630 5635 5638 5643 5648 5650 5656 5663 5663 5666 5671 5667 5664 5674 5687 5692 5695 5700 5704 5708 5712 5714 5716 5719 5722 5729 5741 5744 5743 5748 5749 5746 5746 5750 5753 5754 5754 5755 5754 5752 5755 5758 5759